CW4611 Weather Reports


time (UTC)temp
F
wind
direction
speed
knots
gust
knots
rain 1hr
in
rain 24hr
in
rain mn
in
humidity
%
barometer
mb
20260506050104 35 9 0.9 5.2 0.00 1.01 1.01 89 1015.8
20260506044605 35 9 2.6 5.2 0.00 1.01 1.01 88 1016.1
20260506043604 35 10 4.3 8.7 0.00 1.01 1.01 89 1016.3
20260506041604 35 9 1.7 2.6 0.00 1.01 1.01 90 1016.1
20260506041104 35 9 1.7 2.6 0.01 1.01 1.01 90 1016.2
20260506040604 35 9 1.7 4.3 0.01 1.01 1.01 90 1016.3
20260506034605 35 9 1.7 2.6 0.05 1.01 1.01 89 1016.1
20260506034104 35 9 0.0 0.0 0.07 1.01 1.01 89 1016.1
20260506033104 36 9 0.9 2.6 0.12 1.01 1.01 89 1015.9
20260506031605 36 9 0.9 2.6 0.14 1.01 1.01 89 1015.8
20260506031104 36 9 2.6 4.3 0.13 1.00 1.00 90 1015.8
20260506030604 36 9 1.7 2.6 0.13 1.00 1.00 89 1015.6
20260506024604 36 8 0.9 2.6 0.09 0.96 0.96 86 1015.2
20260506024104 36 11 2.6 4.3 0.07 0.94 0.94 85 1015.1
20260506023604 37 9 1.7 2.6 0.04 0.91 0.91 84 1015.0
20260506021604 40 11 4.3 11.3 0.00 0.87 0.87 77 1014.5
20260506021104 41 10 5.2 12.2 0.00 0.87 0.87 73 1014.4
20260506020604 42 10 4.3 7.8 0.00 0.87 0.87 73 1014.4
20260506020104 42 9 6.1 10.4 0.00 0.87 0.87 78 1014.3
20260506014604 43 10 3.5 5.2 0.00 0.87 0.87 76 1014.0
20260506014104 44 9 2.6 5.2 0.00 0.87 0.87 80 1013.9
20260506013604 44 11 2.6 7.0 0.00 0.87 0.87 78 1013.7
20260506013104 44 11 4.3 8.7 0.00 0.87 0.87 76 1013.8
20260506011603 44 10 0.0 0.9 0.00 0.87 0.87 76 1013.7
20260506011105 44 10 0.9 1.7 0.00 0.87 0.87 77 1013.7
20260506010604 44 9 0.0 0.9 0.00 0.87 0.87 78 1013.7
20260506010104 44 9 0.0 0.9 0.00 0.87 0.87 77 1013.6
20260506004604 44 7 0.0 1.7 0.00 0.87 0.87 77 1013.6
20260506004104 44 14 0.9 1.7 0.00 0.87 0.87 78 1013.7
20260506003604 44 15 0.0 1.7 0.00 0.87 0.87 79 1013.7
20260506001604 44 13 0.9 2.6 0.00 0.87 0.87 81 1013.8
20260506001104 43 13 0.9 2.6 0.00 0.87 0.87 81 1013.8
20260506000604 44 14 0.9 4.3 0.00 0.87 0.87 81 1013.7
20260506000104 44 13 2.6 2.6 0.00 0.87 0.87 83 1013.7
20260505234104 42 13 0.9 2.6 0.00 0.87 0.87 82 1013.7
20260505233604 42 15 0.9 0.9 0.00 0.87 0.87 84 1013.8
20260505233104 42 15 1.7 2.6 0.00 0.87 0.87 84 1013.9
20260505231104 42 12 0.9 4.3 0.00 0.87 0.87 84 1014.0
20260505230604 42 13 1.7 2.6 0.00 0.87 0.87 83 1014.0
20260505230104 42 13 1.7 4.3 0.00 0.87 0.87 84 1014.0
20260505224604 41 13 1.7 4.3 0.00 0.87 0.87 85 1014.1
20260505224104 41 14 1.7 2.6 0.00 0.87 0.87 85 1014.1
20260505223604 41 13 1.7 2.6 0.00 0.87 0.87 87 1014.1
20260505221605 41 13 1.7 4.3 0.01 0.87 0.87 88 1014.1
20260505221105 41 12 0.9 2.6 0.02 0.87 0.87 92 1014.0
20260505220605 40 13 1.7 2.6 0.03 0.87 0.87 90 1014.1
20260505220105 40 14 0.9 5.2 0.03 0.87 0.87 91 1014.0
20260505214605 39 13 1.7 2.6 0.08 0.87 0.87 91 1014.2
20260505214104 39 13 0.9 2.6 0.09 0.87 0.87 89 1014.2
20260505213605 39 14 0.0 2.6 0.10 0.87 0.87 89 1014.2
20260505213105 39 13 1.7 4.3 0.11 0.87 0.87 89 1014.3
20260505211605 39 13 0.9 4.3 0.11 0.86 0.86 90 1014.3
20260505210605 39 12 1.7 4.3 0.09 0.84 0.84 90 1014.3
20260505210105 39 13 0.9 4.3 0.09 0.84 0.84 90 1014.4
20260505204605 39 13 1.7 4.3 0.04 0.79 0.79 91 1014.4
20260505204105 39 13 0.0 5.2 0.03 0.78 0.78 91 1014.3
20260505203605 38 13 0.0 2.6 0.02 0.77 0.77 91 1014.3
20260505203105 38 14 0.9 4.3 0.01 0.76 0.76 91 1014.2
20260505201605 38 14 0.9 2.6 0.00 0.75 0.75 91 1013.9
20260505201105 38 13 1.7 2.6 0.00 0.75 0.75 92 1013.9
20260505200605 38 11 0.9 1.7 0.00 0.75 0.75 91 1013.8
20260505200105 38 13 0.9 2.6 0.00 0.75 0.75 90 1013.7
20260505194605 37 13 0.9 2.6 0.02 0.75 0.75 91 1013.6
20260505193605 37 13 1.7 2.6 0.03 0.75 0.75 91 1013.6
20260505193105 36 13 1.7 2.6 0.03 0.75 0.75 91 1013.6
20260505191605 36 13 0.0 0.0 0.05 0.75 0.75 90 1013.5
20260505191105 36 13 0.0 0.0 0.06 0.75 0.75 90 1013.4
20260505190604 36 13 0.0 0.9 0.07 0.75 0.75 90 1013.4
20260505190105 36 13 0.0 0.9 0.07 0.75 0.75 90 1013.3
20260505184605 36 13 0.0 0.9 0.06 0.73 0.73 90 1013.6
20260505184104 36 13 0.0 0.0 0.07 0.73 0.73 90 1013.5
20260505183604 36 13 0.0 1.7 0.06 0.72 0.72 90 1013.6
20260505183105 36 13 0.9 2.6 0.06 0.72 0.72 90 1013.5
20260505181605 36 13 0.9 2.6 0.04 0.70 0.70 92 1013.2
20260505181105 36 13 0.9 2.6 0.03 0.69 0.69 92 1013.1
20260505180605 36 13 0.9 2.6 0.02 0.68 0.68 92 1012.9
20260505174605 35 13 0.9 1.7 0.03 0.67 0.67 92 1012.6
20260505174104 35 13 0.9 1.7 0.03 0.66 0.66 91 1012.5
20260505173605 35 13 1.7 2.6 0.03 0.66 0.66 91 1012.5
20260505173105 35 12 0.9 2.6 0.04 0.66 0.66 91 1012.4
20260505171605 35 12 0.0 0.0 0.07 0.66 0.66 90 1012.1
20260505171105 35 12 0.0 0.0 0.09 0.66 0.66 89 1012.0
20260505170605 35 12 0.0 0.0 0.10 0.66 0.66 89 1012.0
20260505170105 35 12 0.0 2.6 0.10 0.66 0.66 89 1011.8
20260505164605 36 13 0.0 1.7 0.08 0.64 0.64 88 1011.7
20260505164105 36 13 0.9 1.7 0.07 0.63 0.63 88 1011.7
20260505163104 36 14 0.9 1.7 0.06 0.62 0.62 88 1011.7
20260505161105 36 12 0.0 0.0 0.02 0.57 0.57 89 1011.3
20260505160605 36 12 0.0 1.7 0.01 0.56 0.56 89 1011.3
20260505160104 36 12 0.0 0.9 0.03 0.56 0.56 89 1011.2
20260505153104 35 12 0.0 1.7 0.15 0.56 0.56 90 1011.0
20260505151604 35 12 0.9 1.7 0.16 0.56 0.56 89 1010.9
20260505151105 35 11 0.9 1.7 0.16 0.55 0.55 89 1010.8
20260505150604 35 9 0.0 0.0 0.16 0.55 0.55 89 1010.7
20260505140104 35 9 0.0 1.7 0.02 0.39 0.39 90 1010.8
20260505130104 34 10 0.0 1.7 0.13 0.37 0.37 89 1010.4
20260505123604 35 9 0.0 0.0 0.26 0.35 0.35 88 1010.2
20260505123105 35 9 0.0 0.9 0.26 0.34 0.34 88 1010.1
20260505121604 35 9 0.0 0.0 0.29 0.31 0.31 88 1010.0
20260505121105 36 9 0.9 1.7 0.28 0.29 0.29 88 1010.0
20260505120105 36 9 0.9 4.3 0.24 0.24 0.24 87 1009.8
20260505114604 37 9 1.7 2.6 0.14 0.14 0.14 89 1009.6
20260505114104 38 10 1.7 4.3 0.11 0.11 0.11 88 1009.6
20260505113605 38 10 1.7 2.6 0.09 0.09 0.09 87 1009.6
20260505113105 38 10 1.7 7.8 0.08 0.08 0.08 87 1009.6
20260505111604 39 9 4.3 7.8 0.02 0.02 0.02 87 1009.5
20260505111104 39 9 2.6 5.2 0.01 0.01 0.01 87 1009.5
20260505110604 39 9 4.3 8.7 0.00 0.00 0.00 86 1009.5
20260505110104 39 9 4.3 8.7 0.00 0.00 0.00 85 1009.5
20260505101605 39 9 4.3 8.7 0.00 0.00 0.00 86 1009.4
20260505101104 39 9 4.3 8.7 0.00 0.00 0.00 86 1009.5
20260505100105 39 10 7.8 11.3 0.00 0.00 0.00 87 1009.6
20260505094605 40 10 5.2 8.7 0.00 0.00 0.00 82 1009.6
20260505094104 40 10 5.2 8.7 0.00 0.00 0.00 79 1009.6
20260505093605 41 11 4.3 6.1 0.00 0.00 0.00 77 1009.5
20260505093105 41 11 0.9 4.3 0.00 0.00 0.00 75 1009.5
20260505091604 42 9 0.0 0.0 0.00 0.00 0.00 75 1009.6
20260505091105 42 9 0.9 1.7 0.00 0.00 0.00 74 1009.7
20260505090604 42 9 0.0 1.7 0.00 0.00 0.00 73 1009.6
20260505090104 42 9 0.0 1.7 0.00 0.00 0.00 73 1009.7
20260505083604 43 9 0.0 0.0 0.00 0.00 0.00 70 1009.9
20260505083104 43 9 0.0 1.7 0.00 0.00 0.00 69 1009.8
20260505081605 42 5 0.0 0.0 0.00 0.00 0.00 70 1009.7
20260505080104 42 5 0.0 0.0 0.00 0.00 0.00 70 1009.7
20260505074604 42 5 0.0 0.0 0.00 0.00 0.00 70 1009.8
20260505074104 41 5 0.0 0.0 0.00 0.00 0.00 71 1009.8
20260505073604 41 5 0.0 0.0 0.00 0.00 0.00 71 1009.9
20260505073104 42 5 0.0 0.9 0.00 0.00 0.00 70 1010.0
20260505071605 42 5 0.0 1.7 0.00 0.00 0.00 70 1010.0
20260505071104 42 5 0.9 2.6 0.00 0.00 0.00 69 1010.0
20260505070604 42 6 1.7 1.7 0.00 0.00 0.00 69 1010.1
20260505070104 41 9 0.9 1.7 0.00 0.00 0.00 69 1010.0
20260505064604 41 9 0.0 0.0 0.00 0.00 0.00 70 1010.0
20260505063604 41 9 0.0 0.9 0.00 0.00 0.00 70 1010.1
20260505063104 41 9 0.0 2.6 0.00 0.00 0.00 70 1010.0
20260505061605 41 13 1.7 2.6 0.00 0.00 0.00 70 1010.1
20260505061107 41 14 0.9 6.1 0.00 0.00 0.00 69 1010.0
20260505060604 42 14 4.3 7.0 0.00 0.00 0.00 67 1010.0
20260505060104 43 9 0.9 2.6 0.00 0.00 0.00 66 1009.7
20260505054604 43 9 1.7 4.3 0.00 0.00 0.00 65 1009.7
20260505054104 44 11 1.7 4.3 0.00 0.00 0.00 64 1009.6
20260505053604 44 9 0.0 2.6 0.00 0.00 0.00 63 1009.6